| time (UTC) | temp F | wind direction | speed MPH | gust MPH | rain 1hr in | rain 24hr in | rain mn in | humidity % | barometer mb |
| 20260902235209 | 71 | 348 | 4.0 | 7.0 | 0.14 | 0.00 | 0.15 | 93 | 1014.0 |
| 20260902234709 | 71 | 22 | 4.0 | 9.0 | 0.13 | 0.00 | 0.14 | 93 | 1014.0 |
| 20260902234209 | 72 | 360 | 2.0 | 6.0 | 0.12 | 0.00 | 0.13 | 92 | 1014.0 |
| 20260902233710 | 72 | 70 | 3.0 | 9.0 | 0.11 | 0.00 | 0.12 | 92 | 1014.0 |
| 20260902233210 | 73 | 331 | 5.0 | 11.0 | 0.11 | 0.00 | 0.12 | 91 | 1015.0 |
| 20260902232709 | 72 | 16 | 1.0 | 1.0 | 0.11 | 0.00 | 0.12 | 90 | 1015.0 |
| 20260902232210 | 72 | 349 | 2.0 | 2.0 | 0.11 | 0.00 | 0.12 | 90 | 1015.0 |
| 20260902231709 | 72 | 59 | 2.0 | 4.0 | 0.11 | 0.00 | 0.12 | 89 | 1015.0 |
| 20260902231210 | 73 | 352 | 3.0 | 8.0 | 0.11 | 0.00 | 0.12 | 88 | 1014.0 |
| 20260902230710 | 74 | 271 | 8.0 | 15.0 | 0.10 | 0.00 | 0.11 | 86 | 1014.0 |
| 20260902230211 | 79 | 349 | 8.0 | 9.0 | 0.03 | 0.00 | 0.07 | 83 | 1015.0 |
| 20260902225709 | 79 | 279 | 4.0 | 6.0 | 0.00 | 0.00 | 0.01 | 84 | 1014.0 |
| 20260902225210 | 79 | 278 | 3.0 | 5.0 | 0.00 | 0.00 | 0.01 | 84 | 1013.0 |
| 20260902224710 | 79 | 46 | 4.0 | 6.0 | 0.00 | 0.00 | 0.01 | 84 | 1013.0 |
| 20260902224210 | 80 | 148 | 2.0 | 8.0 | 0.00 | 0.00 | 0.01 | 84 | 1013.0 |
| 20260902223709 | 80 | 163 | 3.0 | 7.0 | 0.00 | 0.00 | 0.01 | 84 | 1013.0 |
| 20260902223209 | 80 | 263 | 1.0 | 1.0 | 0.00 | 0.00 | 0.01 | 84 | 1013.0 |
| 20260902222710 | 80 | 292 | 1.0 | 7.0 | 0.00 | 0.00 | 0.01 | 84 | 1013.0 |
| 20260902222209 | 80 | 144 | 3.0 | 5.0 | 0.00 | 0.00 | 0.01 | 83 | 1013.0 |
| 20260902221709 | 80 | 161 | 3.0 | 5.0 | 0.00 | 0.00 | 0.01 | 83 | 1013.0 |
| 20260902221210 | 81 | 171 | 0.0 | 4.0 | 0.00 | 0.00 | 0.01 | 82 | 1013.0 |
| 20260902220710 | 81 | 134 | 1.0 | 5.0 | 0.00 | 0.00 | 0.01 | 81 | 1013.0 |
| 20260902220209 | 81 | 349 | 1.0 | 6.0 | 0.00 | 0.00 | 0.01 | 81 | 1013.0 |
| 20260902215709 | 81 | 199 | 7.0 | 8.0 | 0.00 | 0.00 | 0.01 | 80 | 1013.0 |
| 20260902215210 | 82 | 340 | 2.0 | 8.0 | 0.00 | 0.00 | 0.01 | 79 | 1012.0 |
| 20260902214711 | 82 | 130 | 4.0 | 7.0 | 0.00 | 0.00 | 0.01 | 78 | 1012.0 |
| 20260902214210 | 83 | 213 | 4.0 | 6.0 | 0.00 | 0.00 | 0.01 | 77 | 1012.0 |
| 20260902213709 | 84 | 101 | 3.0 | 7.0 | 0.00 | 0.00 | 0.01 | 76 | 1012.0 |
| 20260902213209 | 84 | 75 | 6.0 | 6.0 | 0.00 | 0.00 | 0.01 | 75 | 1012.0 |
| 20260902212711 | 85 | 150 | 4.0 | 4.0 | 0.00 | 0.00 | 0.01 | 74 | 1012.0 |
| 20260902212210 | 85 | 184 | 2.0 | 2.0 | 0.00 | 0.00 | 0.01 | 74 | 1013.0 |
| 20260902211709 | 85 | 117 | 0.0 | 4.0 | 0.00 | 0.00 | 0.01 | 75 | 1013.0 |
| 20260902211211 | 85 | 116 | 1.0 | 4.0 | 0.00 | 0.00 | 0.01 | 76 | 1013.0 |
| 20260902210710 | 84 | 152 | 0.0 | 4.0 | 0.00 | 0.00 | 0.01 | 79 | 1013.0 |
| 20260902210210 | 83 | 167 | 0.0 | 2.0 | 0.00 | 0.00 | 0.01 | 81 | 1013.0 |
| 20260902205710 | 82 | 127 | 0.0 | 4.0 | 0.00 | 0.00 | 0.01 | 81 | 1013.0 |
| 20260902205210 | 82 | 170 | 0.0 | 3.0 | 0.00 | 0.00 | 0.01 | 81 | 1013.0 |
| 20260902204710 | 82 | 144 | 2.0 | 3.0 | 0.00 | 0.00 | 0.01 | 81 | 1013.0 |
| 20260902204210 | 82 | 214 | 1.0 | 3.0 | 0.00 | 0.00 | 0.01 | 81 | 1014.0 |
| 20260902203710 | 82 | 324 | 1.0 | 2.0 | 0.00 | 0.00 | 0.01 | 81 | 1014.0 |
| 20260902203209 | 82 | 296 | 2.0 | 4.0 | 0.00 | 0.00 | 0.01 | 80 | 1014.0 |
| 20260902202710 | 82 | 162 | 2.0 | 2.0 | 0.00 | 0.00 | 0.01 | 80 | 1014.0 |
| 20260902202210 | 82 | 90 | 0.0 | 3.0 | 0.00 | 0.00 | 0.01 | 79 | 1014.0 |
| 20260902201710 | 82 | 191 | 2.0 | 7.0 | 0.00 | 0.00 | 0.01 | 78 | 1014.0 |
| 20260902201210 | 83 | 335 | 3.0 | 8.0 | 0.00 | 0.00 | 0.01 | 78 | 1015.0 |
| 20260902200709 | 83 | 154 | 1.0 | 1.0 | 0.00 | 0.00 | 0.01 | 77 | 1014.0 |
| 20260902200215 | 83 | 20 | 3.0 | 5.0 | 0.00 | 0.00 | 0.01 | 77 | 1015.0 |
| 20260902195710 | 83 | 36 | 2.0 | 4.0 | 0.00 | 0.00 | 0.01 | 76 | 1015.0 |
| 20260902195209 | 83 | 42 | 6.0 | 6.0 | 0.00 | 0.00 | 0.01 | 76 | 1015.0 |
| 20260902194710 | 83 | 182 | 2.0 | 5.0 | 0.00 | 0.00 | 0.01 | 76 | 1015.0 |
| 20260902194209 | 83 | 239 | 2.0 | 6.0 | 0.00 | 0.00 | 0.01 | 75 | 1015.0 |
| 20260902193710 | 83 | 141 | 3.0 | 8.0 | 0.00 | 0.00 | 0.01 | 75 | 1015.0 |
| 20260902193209 | 83 | 262 | 8.0 | 8.0 | 0.00 | 0.00 | 0.01 | 74 | 1015.0 |
| 20260902192709 | 84 | 141 | 8.0 | 8.0 | 0.00 | 0.00 | 0.01 | 73 | 1015.0 |
| 20260902192210 | 84 | 196 | 3.0 | 7.0 | 0.00 | 0.00 | 0.01 | 72 | 1015.0 |
| 20260902191709 | 83 | 99 | 4.0 | 7.0 | 0.00 | 0.00 | 0.01 | 73 | 1015.0 |
| 20260902191209 | 84 | 235 | 2.0 | 8.0 | 0.00 | 0.00 | 0.01 | 72 | 1015.0 |
| 20260902190709 | 84 | 155 | 3.0 | 9.0 | 0.00 | 0.00 | 0.01 | 72 | 1015.0 |
| 20260902190209 | 84 | 360 | 2.0 | 7.0 | 0.00 | 0.00 | 0.01 | 71 | 1015.0 |
| 20260902185710 | 84 | 167 | 3.0 | 3.0 | 0.00 | 0.00 | 0.01 | 71 | 1015.0 |
| 20260902185209 | 84 | 171 | 4.0 | 9.0 | 0.00 | 0.00 | 0.01 | 70 | 1015.0 |
| 20260902184709 | 84 | 1 | 1.0 | 4.0 | 0.00 | 0.00 | 0.01 | 70 | 1015.0 |
| 20260902184209 | 84 | 142 | 5.0 | 9.0 | 0.00 | 0.00 | 0.01 | 69 | 1015.0 |
| 20260902183709 | 85 | 203 | 3.0 | 4.0 | 0.00 | 0.00 | 0.01 | 68 | 1015.0 |
| 20260902183210 | 86 | 17 | 2.0 | 6.0 | 0.00 | 0.00 | 0.01 | 67 | 1015.0 |
| 20260902182711 | 86 | 297 | 4.0 | 6.0 | 0.00 | 0.00 | 0.01 | 67 | 1015.0 |
| 20260902182210 | 85 | 280 | 0.0 | 6.0 | 0.00 | 0.00 | 0.01 | 70 | 1015.0 |
| 20260902181712 | 85 | 44 | 2.0 | 4.0 | 0.00 | 0.00 | 0.01 | 70 | 1015.0 |
| 20260902181210 | 85 | 303 | 0.0 | 8.0 | 0.00 | 0.00 | 0.01 | 70 | 1015.0 |
| 20260902180709 | 85 | 116 | 3.0 | 3.0 | 0.00 | 0.00 | 0.01 | 69 | 1015.0 |
| 20260902180209 | 85 | 256 | 2.0 | 4.0 | 0.00 | 0.00 | 0.01 | 69 | 1015.0 |
| 20260902175712 | 84 | 132 | 6.0 | 6.0 | 0.00 | 0.00 | 0.01 | 72 | 1015.0 |
| 20260902175210 | 84 | 178 | 2.0 | 6.0 | 0.00 | 0.00 | 0.01 | 73 | 1015.0 |
| 20260902174709 | 83 | 212 | 2.0 | 6.0 | 0.01 | 0.00 | 0.01 | 74 | 1015.0 |
| 20260902174209 | 82 | 168 | 1.0 | 4.0 | 0.01 | 0.00 | 0.01 | 79 | 1015.0 |
| 20260902173710 | 81 | 325 | 2.0 | 5.0 | 0.01 | 0.00 | 0.01 | 81 | 1015.0 |
| 20260902173210 | 80 | 166 | 2.0 | 4.0 | 0.01 | 0.00 | 0.01 | 82 | 1016.0 |
| 20260902172711 | 79 | 112 | 5.0 | 5.0 | 0.01 | 0.00 | 0.01 | 84 | 1016.0 |
| 20260902172209 | 78 | 238 | 2.0 | 5.0 | 0.01 | 0.00 | 0.01 | 86 | 1016.0 |
| 20260902171709 | 77 | 353 | 0.0 | 4.0 | 0.01 | 0.00 | 0.01 | 88 | 1016.0 |
| 20260902171210 | 77 | 42 | 1.0 | 3.0 | 0.01 | 0.00 | 0.01 | 90 | 1017.0 |
| 20260902170710 | 76 | 116 | 0.0 | 1.0 | 0.01 | 0.00 | 0.01 | 89 | 1016.0 |
| 20260902170211 | 76 | 152 | 2.0 | 2.0 | 0.01 | 0.00 | 0.01 | 88 | 1016.0 |
| 20260902165709 | 76 | 102 | 0.0 | 2.0 | 0.01 | 0.00 | 0.01 | 86 | 1017.0 |
| 20260902165210 | 77 | 253 | 1.0 | 3.0 | 0.01 | 0.00 | 0.01 | 85 | 1017.0 |
| 20260902164710 | 77 | 157 | 3.0 | 4.0 | 0.00 | 0.00 | 0.00 | 84 | 1017.0 |
| 20260902164210 | 78 | 287 | 1.0 | 3.0 | 0.00 | 0.00 | 0.00 | 81 | 1017.0 |
| 20260902163710 | 78 | 249 | 3.0 | 4.0 | 0.00 | 0.00 | 0.00 | 81 | 1017.0 |
| 20260902163210 | 78 | 192 | 2.0 | 4.0 | 0.00 | 0.00 | 0.00 | 81 | 1016.0 |
| 20260902162711 | 78 | 87 | 2.0 | 6.0 | 0.00 | 0.00 | 0.00 | 81 | 1016.0 |
| 20260902162210 | 78 | 234 | 0.0 | 0.0 | 0.00 | 0.00 | 0.00 | 81 | 1016.0 |
| 20260902161710 | 78 | 21 | 3.0 | 3.0 | 0.00 | 0.00 | 0.00 | 80 | 1016.0 |
| 20260902161210 | 78 | 192 | 1.0 | 5.0 | 0.00 | 0.00 | 0.00 | 79 | 1016.0 |
| 20260902160709 | 79 | 156 | 6.0 | 6.0 | 0.00 | 0.00 | 0.00 | 78 | 1016.0 |
| 20260902160211 | 80 | 138 | 6.0 | 6.0 | 0.00 | 0.00 | 0.00 | 78 | 1016.0 |
| 20260902155712 | 80 | 135 | 0.0 | 7.0 | 0.00 | 0.00 | 0.00 | 76 | 1016.0 |
| 20260902155213 | 81 | 159 | 9.0 | 9.0 | 0.00 | 0.00 | 0.00 | 76 | 1016.0 |
| 20260902154710 | 81 | 257 | 1.0 | 7.0 | 0.00 | 0.00 | 0.00 | 74 | 1016.0 |
| 20260902154210 | 81 | 297 | 2.0 | 6.0 | 0.00 | 0.00 | 0.00 | 74 | 1016.0 |
| 20260902153710 | 81 | 162 | 1.0 | 4.0 | 0.00 | 0.00 | 0.00 | 74 | 1016.0 |
| 20260902153210 | 81 | 94 | 5.0 | 7.0 | 0.00 | 0.00 | 0.00 | 73 | 1016.0 |
| 20260902152710 | 81 | 209 | 1.0 | 5.0 | 0.00 | 0.00 | 0.00 | 73 | 1016.0 |
| 20260902152210 | 81 | 188 | 4.0 | 4.0 | 0.00 | 0.00 | 0.00 | 74 | 1017.0 |
| 20260902151709 | 81 | 163 | 4.0 | 4.0 | 0.00 | 0.00 | 0.00 | 75 | 1017.0 |
| 20260902151209 | 81 | 230 | 4.0 | 4.0 | 0.00 | 0.00 | 0.00 | 76 | 1017.0 |
| 20260902150710 | 80 | 143 | 8.0 | 8.0 | 0.00 | 0.00 | 0.00 | 76 | 1017.0 |
| 20260902150210 | 80 | 314 | 4.0 | 5.0 | 0.00 | 0.00 | 0.00 | 76 | 1017.0 |
| 20260902145710 | 80 | 17 | 3.0 | 7.0 | 0.00 | 0.00 | 0.00 | 77 | 1017.0 |
| 20260902145210 | 79 | 162 | 4.0 | 4.0 | 0.00 | 0.00 | 0.00 | 79 | 1017.0 |
| 20260902144710 | 78 | 68 | 0.0 | 5.0 | 0.00 | 0.00 | 0.00 | 81 | 1017.0 |
| 20260902144210 | 78 | 162 | 4.0 | 6.0 | 0.00 | 0.00 | 0.00 | 83 | 1017.0 |
| 20260902143709 | 77 | 175 | 3.0 | 7.0 | 0.00 | 0.00 | 0.00 | 82 | 1017.0 |
| 20260902143217 | 77 | 125 | 2.0 | 10.0 | 0.00 | 0.00 | 0.00 | 80 | 1017.0 |
| 20260902142710 | 77 | 33 | 1.0 | 1.0 | 0.00 | 0.00 | 0.00 | 81 | 1017.0 |
| 20260902142209 | 77 | 231 | 4.0 | 4.0 | 0.00 | 0.00 | 0.00 | 82 | 1017.0 |
| 20260902141718 | 76 | 84 | 2.0 | 4.0 | 0.00 | 0.00 | 0.00 | 84 | 1017.0 |
| 20260902141210 | 76 | 119 | 4.0 | 8.0 | 0.00 | 0.00 | 0.00 | 86 | 1017.0 |
| 20260902140710 | 75 | 349 | 1.0 | 6.0 | 0.00 | 0.00 | 0.00 | 90 | 1017.0 |
| 20260902140210 | 74 | 110 | 7.0 | 7.0 | 0.00 | 0.00 | 0.00 | 90 | 1017.0 |
| 20260902135710 | 74 | 218 | 0.0 | 3.0 | 0.00 | 0.00 | 0.00 | 89 | 1017.0 |
| 20260902135210 | 74 | 158 | 2.0 | 3.0 | 0.00 | 0.00 | 0.00 | 88 | 1017.0 |
| 20260902134709 | 73 | 190 | 0.0 | 6.0 | 0.00 | 0.00 | 0.00 | 87 | 1017.0 |
| 20260902134210 | 73 | 137 | 0.0 | 3.0 | 0.00 | 0.00 | 0.00 | 87 | 1017.0 |
| 20260902133711 | 73 | 162 | 1.0 | 3.0 | 0.00 | 0.00 | 0.00 | 87 | 1017.0 |
| 20260902133209 | 74 | 226 | 0.0 | 1.0 | 0.00 | 0.00 | 0.00 | 87 | 1017.0 |
| 20260902132710 | 74 | 95 | 1.0 | 2.0 | 0.00 | 0.00 | 0.00 | 87 | 1017.0 |
| 20260902132209 | 74 | 178 | 0.0 | 3.0 | 0.00 | 0.00 | 0.00 | 87 | 1017.0 |
| 20260902131710 | 73 | 26 | 0.0 | 2.0 | 0.00 | 0.00 | 0.00 | 88 | 1017.0 |
| 20260902131209 | 73 | 138 | 0.0 | 0.0 | 0.00 | 0.00 | 0.00 | 88 | 1017.0 |
| 20260902130709 | 73 | 119 | 0.0 | 0.0 | 0.00 | 0.00 | 0.00 | 89 | 1017.0 |
| 20260902130209 | 73 | 108 | 0.0 | 0.0 | 0.00 | 0.00 | 0.00 | 88 | 1017.0 |
| 20260902125709 | 73 | 102 | 0.0 | 0.0 | 0.00 | 0.00 | 0.00 | 88 | 1017.0 |
| 20260902125209 | 73 | 76 | 0.0 | 1.0 | 0.00 | 0.00 | 0.00 | 88 | 1017.0 |
| 20260902124711 | 73 | 154 | 0.0 | 3.0 | 0.00 | 0.00 | 0.00 | 87 | 1017.0 |
| 20260902124209 | 73 | 3 | 0.0 | 3.0 | 0.00 | 0.00 | 0.00 | 87 | 1018.0 |
| 20260902123711 | 73 | 343 | 1.0 | 1.0 | 0.00 | 0.00 | 0.00 | 86 | 1018.0 |
| 20260902123209 | 73 | 2 | 0.0 | 1.0 | 0.00 | 0.00 | 0.00 | 86 | 1018.0 |
| 20260902122711 | 74 | 326 | 1.0 | 4.0 | 0.00 | 0.00 | 0.00 | 85 | 1018.0 |
| 20260902122210 | 75 | 279 | 3.0 | 9.0 | 0.00 | 0.00 | 0.00 | 88 | 1018.0 |
| 20260902121709 | 75 | 253 | 0.0 | 3.0 | 0.00 | 0.00 | 0.00 | 87 | 1017.0 |
| 20260902121210 | 75 | 9 | 4.0 | 5.0 | 0.00 | 0.00 | 0.00 | 88 | 1016.0 |
| 20260902120709 | 75 | 132 | 2.0 | 8.0 | 0.00 | 0.00 | 0.00 | 88 | 1016.0 |
| 20260902120209 | 75 | 34 | 4.0 | 6.0 | 0.00 | 0.00 | 0.00 | 88 | 1015.0 |
| 20260902115709 | 75 | 181 | 2.0 | 2.0 | 0.00 | 0.00 | 0.00 | 89 | 1015.0 |
| 20260902115209 | 75 | 70 | 2.0 | 4.0 | 0.00 | 0.00 | 0.00 | 89 | 1015.0 |
| 20260902114221 | 74 | 159 | 2.0 | 5.0 | 0.00 | 0.00 | 0.00 | 89 | 1015.0 |
| 20260902113709 | 74 | 132 | 0.0 | 2.0 | 0.00 | 0.00 | 0.00 | 90 | 1015.0 |
| 20260902113211 | 74 | 235 | 1.0 | 4.0 | 0.00 | 0.00 | 0.00 | 90 | 1015.0 |
| 20260902112709 | 74 | 243 | 1.0 | 6.0 | 0.00 | 0.00 | 0.00 | 90 | 1015.0 |
| 20260902112210 | 74 | 246 | 0.0 | 3.0 | 0.00 | 0.00 | 0.00 | 91 | 1015.0 |
| 20260902111709 | 74 | 335 | 0.0 | 5.0 | 0.00 | 0.00 | 0.00 | 91 | 1015.0 |
| 20260902111209 | 74 | 304 | 0.0 | 0.0 | 0.00 | 0.00 | 0.00 | 92 | 1015.0 |
| 20260902110709 | 74 | 92 | 0.0 | 0.0 | 0.00 | 0.00 | 0.00 | 92 | 1015.0 |
| 20260902110210 | 74 | 135 | 0.0 | 0.0 | 0.00 | 0.00 | 0.00 | 92 | 1015.0 |
| 20260902105711 | 73 | 177 | 0.0 | 0.0 | 0.00 | 0.00 | 0.00 | 92 | 1015.0 |
| 20260902105209 | 73 | 150 | 0.0 | 0.0 | 0.00 | 0.00 | 0.00 | 92 | 1015.0 |
| 20260902104710 | 73 | 133 | 0.0 | 0.0 | 0.00 | 0.00 | 0.00 | 93 | 1014.0 |
| 20260902104210 | 73 | 173 | 0.0 | 0.0 | 0.00 | 0.00 | 0.00 | 93 | 1014.0 |
| 20260902103710 | 73 | 123 | 0.0 | 0.0 | 0.00 | 0.00 | 0.00 | 93 | 1014.0 |
| 20260902103209 | 73 | 109 | 0.0 | 0.0 | 0.00 | 0.00 | 0.00 | 93 | 1014.0 |
| 20260902102709 | 73 | 168 | 0.0 | 0.0 | 0.00 | 0.00 | 0.00 | 94 | 1015.0 |
| 20260902102209 | 73 | 122 | 0.0 | 0.0 | 0.00 | 0.00 | 0.00 | 94 | 1015.0 |
| 20260902101710 | 73 | 209 | 0.0 | 0.0 | 0.00 | 0.00 | 0.00 | 94 | 1015.0 |
| 20260902101210 | 73 | 140 | 0.0 | 0.0 | 0.00 | 0.00 | 0.00 | 95 | 1014.0 |
| 20260902100709 | 73 | 90 | 0.0 | 0.0 | 0.00 | 0.00 | 0.00 | 95 | 1014.0 |
| 20260902100209 | 73 | 23 | 0.0 | 0.0 | 0.00 | 0.00 | 0.00 | 95 | 1015.0 |
| 20260902095709 | 73 | 316 | 1.0 | 2.0 | 0.00 | 0.00 | 0.00 | 95 | 1015.0 |
| 20260902095209 | 73 | 121 | 0.0 | 0.0 | 0.00 | 0.00 | 0.00 | 95 | 1014.0 |
| 20260902094709 | 73 | 129 | 0.0 | 0.0 | 0.00 | 0.00 | 0.00 | 95 | 1015.0 |
| 20260902094209 | 73 | 107 | 0.0 | 0.0 | 0.00 | 0.00 | 0.00 | 96 | 1015.0 |
| 20260902093716 | 73 | 141 | 0.0 | 0.0 | 0.00 | 0.00 | 0.00 | 96 | 1015.0 |
| 20260902093209 | 73 | 117 | 0.0 | 0.0 | 0.00 | 0.00 | 0.00 | 96 | 1015.0 |
| 20260902092710 | 73 | 126 | 0.0 | 0.0 | 0.00 | 0.00 | 0.00 | 96 | 1015.0 |
| 20260902092210 | 73 | 84 | 0.0 | 0.0 | 0.00 | 0.00 | 0.00 | 96 | 1015.0 |
| 20260902091709 | 73 | 159 | 0.0 | 0.0 | 0.00 | 0.00 | 0.00 | 96 | 1015.0 |
| 20260902091210 | 73 | 164 | 0.0 | 1.0 | 0.00 | 0.00 | 0.00 | 96 | 1015.0 |
| 20260902090710 | 73 | 218 | 0.0 | 3.0 | 0.00 | 0.00 | 0.00 | 96 | 1015.0 |
| 20260902090209 | 73 | 181 | 0.0 | 0.0 | 0.00 | 0.00 | 0.00 | 97 | 1015.0 |
| 20260902085709 | 73 | 167 | 0.0 | 0.0 | 0.00 | 0.00 | 0.00 | 96 | 1015.0 |
| 20260902085209 | 73 | 128 | 0.0 | 0.0 | 0.00 | 0.00 | 0.00 | 97 | 1015.0 |
| 20260902084710 | 73 | 123 | 0.0 | 0.0 | 0.00 | 0.00 | 0.00 | 97 | 1015.0 |
| 20260902084209 | 72 | 125 | 0.0 | 0.0 | 0.00 | 0.00 | 0.00 | 97 | 1015.0 |
| 20260902083710 | 72 | 128 | 0.0 | 0.0 | 0.00 | 0.00 | 0.00 | 96 | 1015.0 |
| 20260902083210 | 72 | 118 | 0.0 | 0.0 | 0.00 | 0.00 | 0.00 | 97 | 1015.0 |
| 20260902082710 | 72 | 353 | 0.0 | 1.0 | 0.00 | 0.00 | 0.00 | 97 | 1015.0 |
| 20260902082209 | 72 | 220 | 0.0 | 0.0 | 0.00 | 0.00 | 0.00 | 97 | 1016.0 |
| 20260902081709 | 72 | 151 | 0.0 | 0.0 | 0.00 | 0.00 | 0.00 | 97 | 1016.0 |
| 20260902081210 | 72 | 113 | 0.0 | 0.0 | 0.00 | 0.00 | 0.00 | 96 | 1016.0 |
| 20260902080709 | 72 | 159 | 0.0 | 0.0 | 0.00 | 0.00 | 0.00 | 96 | 1016.0 |
| 20260902080211 | 72 | 107 | 0.0 | 0.0 | 0.00 | 0.00 | 0.00 | 96 | 1016.0 |
| 20260902075710 | 72 | 332 | 0.0 | 0.0 | 0.00 | 0.00 | 0.00 | 96 | 1016.0 |
| 20260902075209 | 72 | 153 | 0.0 | 0.0 | 0.00 | 0.00 | 0.00 | 96 | 1016.0 |
| 20260902074709 | 72 | 145 | 0.0 | 0.0 | 0.00 | 0.00 | 0.00 | 96 | 1016.0 |
| 20260902074210 | 72 | 128 | 0.0 | 0.0 | 0.00 | 0.00 | 0.00 | 96 | 1016.0 |
| 20260902073710 | 72 | 146 | 0.0 | 0.0 | 0.00 | 0.00 | 0.00 | 96 | 1016.0 |
| 20260902073209 | 72 | 124 | 0.0 | 0.0 | 0.00 | 0.00 | 0.00 | 96 | 1016.0 |
| 20260902072709 | 72 | 122 | 0.0 | 0.0 | 0.00 | 0.00 | 0.00 | 96 | 1016.0 |
| 20260902072211 | 72 | 121 | 0.0 | 0.0 | 0.00 | 0.00 | 0.00 | 96 | 1016.0 |
| 20260902071710 | 72 | 119 | 0.0 | 0.0 | 0.00 | 0.00 | 0.00 | 96 | 1016.0 |
| 20260902071214 | 72 | 128 | 0.0 | 0.0 | 0.00 | 0.00 | 0.00 | 96 | 1016.0 |
| 20260902070711 | 72 | 169 | 0.0 | 0.0 | 0.00 | 0.00 | 0.00 | 96 | 1016.0 |
| 20260902070210 | 72 | 147 | 0.0 | 0.0 | 0.00 | 0.00 | 0.00 | 96 | 1016.0 |
| 20260902065709 | 72 | 124 | 0.0 | 0.0 | 0.00 | 0.00 | 0.00 | 96 | 1016.0 |
| 20260902065210 | 72 | 114 | 0.0 | 0.0 | 0.00 | 0.00 | 0.00 | 96 | 1016.0 |
| 20260902064710 | 72 | 64 | 0.0 | 0.0 | 0.00 | 0.00 | 0.00 | 96 | 1016.0 |
| 20260902064210 | 72 | 170 | 0.0 | 0.0 | 0.00 | 0.00 | 0.00 | 96 | 1016.0 |
| 20260902063710 | 72 | 137 | 0.0 | 0.0 | 0.00 | 0.00 | 0.00 | 96 | 1016.0 |
| 20260902063209 | 72 | 171 | 0.0 | 0.0 | 0.00 | 0.00 | 0.00 | 96 | 1016.0 |
| 20260902062710 | 72 | 160 | 0.0 | 0.0 | 0.00 | 0.00 | 0.00 | 96 | 1016.0 |
| 20260902062209 | 72 | 146 | 0.0 | 0.0 | 0.00 | 0.00 | 0.00 | 96 | 1016.0 |
| 20260902061710 | 72 | 121 | 0.0 | 0.0 | 0.00 | 0.00 | 0.00 | 96 | 1016.0 |
| 20260902061210 | 72 | 109 | 0.0 | 0.0 | 0.00 | 0.00 | 0.00 | 96 | 1016.0 |
| 20260902060709 | 72 | 100 | 0.0 | 0.0 | 0.00 | 0.00 | 0.00 | 96 | 1016.0 |
| 20260902060210 | 72 | 110 | 0.0 | 0.0 | 0.00 | 0.00 | 0.00 | 96 | 1016.0 |
| 20260902055710 | 72 | 108 | 0.0 | 0.0 | 0.00 | 0.00 | 0.00 | 96 | 1016.0 |
| 20260902055212 | 72 | 123 | 0.0 | 0.0 | 0.00 | 0.00 | 0.00 | 96 | 1016.0 |
| 20260902054709 | 72 | 149 | 0.0 | 0.0 | 0.00 | 0.00 | 0.00 | 96 | 1016.0 |
| 20260902054209 | 72 | 128 | 0.0 | 1.0 | 0.00 | 0.00 | 0.00 | 95 | 1016.0 |
| 20260902053710 | 72 | 111 | 0.0 | 0.0 | 0.00 | 0.00 | 0.00 | 95 | 1016.0 |
| 20260902053210 | 72 | 109 | 0.0 | 0.0 | 0.00 | 0.00 | 0.00 | 95 | 1016.0 |
| 20260902052710 | 72 | 162 | 0.0 | 0.0 | 0.00 | 0.00 | 0.00 | 95 | 1016.0 |
| 20260902052209 | 72 | 119 | 0.0 | 0.0 | 0.00 | 0.00 | 0.00 | 95 | 1016.0 |
| 20260902051709 | 72 | 107 | 0.0 | 0.0 | 0.00 | 0.00 | 0.00 | 95 | 1016.0 |
| 20260902051210 | 72 | 91 | 0.0 | 0.0 | 0.00 | 0.00 | 0.00 | 95 | 1016.0 |
| 20260902050710 | 72 | 104 | 0.0 | 0.0 | 0.00 | 0.00 | 0.00 | 95 | 1016.0 |
| 20260902050211 | 72 | 90 | 0.0 | 0.0 | 0.00 | 0.00 | 0.00 | 95 | 1016.0 |
| 20260902045709 | 72 | 118 | 0.0 | 0.0 | 0.00 | 0.00 | 0.00 | 95 | 1016.0 |
| 20260902045210 | 72 | 112 | 0.0 | 0.0 | 0.00 | 0.00 | 0.00 | 95 | 1016.0 |
| 20260902044710 | 72 | 85 | 0.0 | 0.0 | 0.00 | 0.00 | 0.00 | 94 | 1016.0 |
| 20260902044209 | 72 | 126 | 0.0 | 0.0 | 0.00 | 0.00 | 0.00 | 94 | 1016.0 |
| 20260902043710 | 72 | 106 | 0.0 | 0.0 | 0.00 | 0.00 | 0.00 | 94 | 1016.0 |
| 20260902043211 | 72 | 120 | 0.0 | 0.0 | 0.00 | 0.00 | 0.00 | 94 | 1016.0 |
| 20260902042709 | 73 | 122 | 0.0 | 0.0 | 0.00 | 0.00 | 0.00 | 94 | 1016.0 |
| 20260902042211 | 72 | 114 | 0.0 | 0.0 | 0.00 | 0.00 | 0.00 | 94 | 1016.0 |
| 20260902041709 | 73 | 115 | 0.0 | 0.0 | 0.00 | 0.00 | 0.00 | 94 | 1016.0 |
| 20260902041209 | 73 | 113 | 0.0 | 0.0 | 0.00 | 0.00 | 0.00 | 94 | 1016.0 |
| 20260902040713 | 73 | 131 | 0.0 | 0.0 | 0.00 | 0.00 | 0.00 | 94 | 1016.0 |
| 20260902040210 | 73 | 89 | 0.0 | 0.0 | 0.00 | 0.00 | 0.00 | 94 | 1016.0 |
| 20260902035710 | 73 | 116 | 0.0 | 0.0 | 0.00 | 0.00 | 0.00 | 94 | 1016.0 |
| 20260902035210 | 73 | 135 | 0.0 | 0.0 | 0.00 | 0.00 | 0.00 | 94 | 1016.0 |
| 20260902034710 | 73 | 120 | 0.0 | 0.0 | 0.00 | 0.00 | 0.00 | 93 | 1016.0 |
| 20260902034209 | 73 | 113 | 0.0 | 0.0 | 0.00 | 0.00 | 0.00 | 93 | 1016.0 |
| 20260902033710 | 73 | 89 | 0.0 | 0.0 | 0.00 | 0.00 | 0.00 | 93 | 1016.0 |
| 20260902033209 | 74 | 107 | 0.0 | 0.0 | 0.00 | 0.00 | 0.00 | 93 | 1016.0 |
| 20260902032710 | 74 | 121 | 0.0 | 0.0 | 0.00 | 0.00 | 0.00 | 93 | 1016.0 |
| 20260902032209 | 74 | 112 | 0.0 | 0.0 | 0.00 | 0.00 | 0.00 | 93 | 1016.0 |
| 20260902031709 | 74 | 129 | 0.0 | 0.0 | 0.00 | 0.00 | 0.00 | 93 | 1016.0 |
| 20260902031211 | 74 | 106 | 0.0 | 0.0 | 0.00 | 0.00 | 0.00 | 93 | 1016.0 |
| 20260902030710 | 74 | 109 | 0.0 | 0.0 | 0.00 | 0.00 | 0.00 | 93 | 1016.0 |
| 20260902030209 | 74 | 124 | 0.0 | 0.0 | 0.00 | 0.00 | 0.00 | 93 | 1016.0 |
| 20260902025710 | 74 | 90 | 0.0 | 0.0 | 0.00 | 0.00 | 0.00 | 93 | 1016.0 |
| 20260902025210 | 75 | 89 | 0.0 | 0.0 | 0.00 | 0.00 | 0.00 | 93 | 1016.0 |
| 20260902024709 | 75 | 153 | 0.0 | 0.0 | 0.00 | 0.00 | 0.00 | 94 | 1016.0 |
| 20260902024209 | 74 | 103 | 0.0 | 0.0 | 0.00 | 0.00 | 0.00 | 93 | 1016.0 |
| 20260902023710 | 74 | 6 | 0.0 | 1.0 | 0.00 | 0.00 | 0.00 | 94 | 1016.0 |
| 20260902023210 | 75 | 102 | 0.0 | 0.0 | 0.00 | 0.00 | 0.00 | 93 | 1016.0 |
| 20260902022710 | 75 | 149 | 0.0 | 0.0 | 0.00 | 0.00 | 0.00 | 93 | 1016.0 |
| 20260902022209 | 75 | 108 | 0.0 | 0.0 | 0.00 | 0.00 | 0.00 | 93 | 1016.0 |
| 20260902021710 | 75 | 126 | 0.0 | 0.0 | 0.00 | 0.00 | 0.00 | 93 | 1016.0 |
| 20260902021210 | 75 | 81 | 0.0 | 0.0 | 0.00 | 0.00 | 0.00 | 93 | 1016.0 |
| 20260902020709 | 75 | 146 | 0.0 | 0.0 | 0.00 | 0.00 | 0.00 | 93 | 1016.0 |
| 20260902020209 | 75 | 218 | 0.0 | 0.0 | 0.00 | 0.00 | 0.00 | 93 | 1016.0 |
| 20260902015741 | 75 | 160 | 0.0 | 1.0 | 0.00 | 0.00 | 0.00 | 93 | 1016.0 |
| 20260902015211 | 75 | 83 | 0.0 | 2.0 | 0.00 | 0.00 | 0.00 | 93 | 1016.0 |
| 20260902014709 | 75 | 104 | 0.0 | 0.0 | 0.00 | 0.00 | 0.00 | 93 | 1016.0 |
| 20260902014209 | 75 | 154 | 0.0 | 0.0 | 0.00 | 0.00 | 0.00 | 93 | 1016.0 |
| 20260902013709 | 75 | 137 | 0.0 | 2.0 | 0.00 | 0.00 | 0.00 | 93 | 1016.0 |
| 20260902013211 | 75 | 148 | 0.0 | 2.0 | 0.00 | 0.00 | 0.00 | 93 | 1016.0 |
| 20260902012710 | 75 | 132 | 0.0 | 2.0 | 0.00 | 0.00 | 0.00 | 93 | 1016.0 |
| 20260902012210 | 75 | 157 | 0.0 | 0.0 | 0.00 | 0.00 | 0.00 | 93 | 1016.0 |
| 20260902011710 | 75 | 161 | 0.0 | 0.0 | 0.00 | 0.00 | 0.00 | 93 | 1016.0 |
| 20260902011209 | 75 | 173 | 0.0 | 1.0 | 0.00 | 0.00 | 0.00 | 92 | 1016.0 |
| 20260902010709 | 75 | 221 | 0.0 | 0.0 | 0.00 | 0.00 | 0.00 | 92 | 1016.0 |
| 20260902010210 | 75 | 169 | 0.0 | 1.0 | 0.00 | 0.00 | 0.00 | 92 | 1016.0 |
| 20260902005709 | 75 | 157 | 0.0 | 1.0 | 0.00 | 0.00 | 0.00 | 92 | 1016.0 |
| 20260902005211 | 75 | 147 | 0.0 | 1.0 | 0.00 | 0.00 | 0.00 | 92 | 1015.0 |
| 20260902004710 | 76 | 148 | 0.0 | 1.0 | 0.00 | 0.00 | 0.00 | 91 | 1015.0 |
| 20260902004209 | 76 | 200 | 0.0 | 0.0 | 0.00 | 0.00 | 0.00 | 91 | 1015.0 |
| 20260902003711 | 76 | 155 | 0.0 | 0.0 | 0.00 | 0.00 | 0.00 | 91 | 1015.0 |
| 20260902003209 | 76 | 83 | 0.0 | 1.0 | 0.00 | 0.00 | 0.00 | 90 | 1015.0 |
| 20260902002710 | 76 | 107 | 0.0 | 0.0 | 0.00 | 0.00 | 0.00 | 90 | 1015.0 |
| 20260902002210 | 76 | 110 | 0.0 | 0.0 | 0.00 | 0.00 | 0.00 | 90 | 1015.0 |
| 20260902001710 | 76 | 161 | 0.0 | 0.0 | 0.00 | 0.00 | 0.00 | 89 | 1015.0 |
| 20260902001210 | 77 | 130 | 0.0 | 1.0 | 0.00 | 0.00 | 0.00 | 88 | 1015.0 |
| 20260902000713 | 77 | 197 | 0.0 | 0.0 | 0.00 | 0.00 | 0.00 | 88 | 1015.0 |
| 20260902000211 | 77 | 103 | 0.0 | 2.0 | 0.00 | 0.00 | 0.00 | 87 | 1015.0 |
| 20260901235709 | 77 | 150 | 0.0 | 4.0 | 0.00 | 0.00 | 0.00 | 87 | 1015.0 |